Find Starlink 6236

NORAD ID: 56422 Int'l Des: 2023-061 Owner: SPXS Country: US Constellation: starlink operational
LEOCIRCULAR

リアルタイム位置

3D地球を読み込み中...

Starlink 6236について

説明を読み込み中...

次回通過

Passes for default location (London). Set your location on the main map for personalized predictions.

高度履歴

Loading altitude history...

軌道要素

1 56422U 23061BA 26106.91668981 .00038952 00000-0 19062-2 0 9991
2 56422 42.9980 323.2968 0000893 238.3104 0.6476 15.17552184 5790
Epoch: Apr 16, 2026 • Age: 11 hours

現在のステータス

高度 512.3 km
速度 7.61 km/s
衛星直下点 3.78°N, 159.64°E
打ち上げ日 May 4, 2023
運用期間 2.9 years
タイプ internet

技術仕様

分類 Payload
質量 305.00 kg
乾燥質量 290.00 kg
総質量 305.00 kg
長さ 0.20 m
直径 2.80 m
スパン 9.00 m
形状 Box + pan
製造者 SPXS
バスタイプ Starlink
フェーズステータス In Orbit
所有者/国 SPXS/US

Most Searched